Location: Casone le Fosse
(44.6547°N, 12.1103°E)
Time: 12:14:45
(UTC+00:00)

Cosmos 1300 - Pass Details

Date: 29 October 2020
Orbit: 511 x 513 km, 82.5° (Epoch: 27 November)

Event Time Altitude Azimuth Distance (km) Brightness Sun altitude
Rises 17:03:52 0° 199° (SSW) 2,616 6.7 -11.1°
Reaches altitude 10° 17:06:02 10° 204° (SSW) 1,735 5.8 -11.5°
Maximum altitude 17:09:44 51° 281° (WNW) 657 3.6 -12.2°
Drops below altitude 10° 17:13:29 10° 359° (N) 1,750 5.3 -12.8°
Sets 17:15:40 0° 4° (N) 2,641 6.2 -13.2°
